NOAA 16 DEB, 41399

Orbit data source: Space-Track

NOAA 16 DEB, 41399 is space debris in SSO originally from a launch on Thu, 21 Sep 2000 UTC launched from the Air Force Western Test Range (AFWTR). Debris objects in space refer to the collection of defunct objects orbiting the Earth. Examples of debris include non-operational satellites, rocket bodies, and fragments generated from explosions, collisions, or faulty payload assembly.

Loading next visibility...
Identifier
41399, 2000-055KC
Orbit
SSO
Country
Flag of USUS
Related business
Manufacturer
Unknown
Mission
Spacecraft
Bus & Motor
Unknown
Mass
Unknown
Launch date (UTC)
2000-09-21 (26 years ago)
Launch vehicle
Unknown
Launch site
Air Force Western Test Range (AFWTR)
Object type
Payload
Rocket body
Debris
Shape & HBR
Unknown shape, 0.1 m
Radar Cross Section
Medium (>0.1 m² and <1 m²)

Expand to show TLE details & history
Last TLE update: 4 days ago

TLE from 4 days ago
0 NOAA 16 DEB
1 41399U 00055KC  26169.89211780  .00002135  00000-0  10519-2 0  9995
2 41399  98.7365 207.7976 0039237 208.0067 151.8997 14.18178875534159
Epoch: 2026-06-18T21:24Z
TLE epoch observation values (Epoch: 2026-06-18T21:24:38.977Z)
Latitude
-0.00008°
Longitude
-20.49372°
Altitude
859.413 km
Speed
7.41 km/s
True Right ascension
13h 51m 11s
True Declination
0° 00' 00"
Sunlit
Object was in daylight at epoch
Visualization orbit readout
Latitude
Unknown
Longitude
Unknown
Altitude
Unknown
Speed
Unknown
Apparent Right ascension
Unknown
Apparent Declination
Unknown
Sunlit
N/A
Visualization observer readout
Local Sidereal Time
23:18:47
Azimuth
Unknown
Elevation
Unknown
Doppler factor
Unknown
Orbital elements
Apogee altitude
856.958 km
Perigee altitude
800.403 km
Semi-major axis
7,206.818 km
Eccentricity
0.00392
Inclination
98.7365°
RAAN
207.7976°
Arg. of periapsis
208.0067°
True anomaly
152.11057°
Mean anomaly
151.8997°
Eccentric anomaly
152.00522°
Mean motion
3.54754 °/min
Orbital period
101.48 mins
BSTAR
0.0010519
Loading maneuver chart data...
Computing Atmospheric mass density...
Loading historical data...
Loading historical data...
Loading historical data...
Loading historical data...
Loading historical data...
Loading historical data...
Loading historical data...

Documentation

Showing up to 5 results
|